WGS F9 (USA 275)

Last updated on Mon Oct 14 2024 00:02:40 GMT+0000 (Coordinated Universal Time)

1 42075U 17016A 24286.68915837 -.00000097 00000+0 00000+0 0 9997 2 42075 0.0125 241.3045 0000197 268.8056 107.7395 1.00270048 27754
UTC large
Height (km)
Speed (km/s)
/
Latitude / Longitude
Inclination (degrees)
Orbital Period (minutes)
Azimuth
Elevation
Range (km)
Doppler Factor

Next 0 passes for location: London (51.5072 / 0.1276)

Sorry there are no passes over London.